Wind_Speed
21 20 19 19 17 17 19 18 17 17 15 13 13 12 13 12 12 12 11 10 9 9 9 9 8 9 9 8 8 8 9 10 10 10 10 11 11 11 10 9 8 8
23 21 20 19 17 17 19 18 17 17 15 13 13 13 13 13 13 13 11 11 10 10 10 9 9 9 8 8 8 9 9 10 10 9 10 11 11 10 10 9 9 8
25 24 21 18 18 18 18 18 17 16 15 14 13 13 13 13 14 13 12 11 11 11 10 9 9 9 9 9 9 9 9 9 9 9 10 11 10 10 9 9 9 8
26 25 21 17 18 20 19 18 17 16 15 14 13 13 13 14 15 14 13 12 11 11 10 10 10 9 9 9 9 10 9 9 9 9 10 11 10 10 9 9 9 9
24 22 19 16 19 20 19 19 18 17 16 14 14 13 14 16 16 14 14 13 12 12 10 10 10 10 10 10 10 10 9 9 9 9 11 11 10 9 9 9 9 9
22 21 17 16 19 20 19 19 19 17 16 15 14 14 15 16 15 14 14 13 13 12 11 11 10 10 10 10 10 9 9 9 10 10 11 11 10 10 9 9 9 10
21 21 19 18 21 21 20 21 19 18 17 15 15 15 16 16 15 15 15 14 13 12 11 11 10 10 10 10 10 10 10 10 10 11 12 11 11 11 10 10 10 11
21 22 21 20 21 21 22 22 20 18 18 16 15 15 16 16 15 15 15 14 14 12 12 11 11 11 10 10 11 11 10 10 11 12 12 11 11 11 10 10 10 11
22 21 21 21 22 22 23 22 20 20 19 17 16 16 16 16 15 16 15 15 14 13 12 11 11 11 10 11 11 11 11 11 11 12 12 11 11 11 11 10 10 10
22 20 20 22 23 23 22 22 22 21 20 18 18 16 16 16 15 15 16 15 14 13 13 11 11 11 11 11 11 11 11 12 12 12 11 11 11 11 11 10 10 10
22 20 23 25 24 23 23 23 23 21 19 19 19 17 17 17 16 16 15 15 14 14 13 12 12 12 12 12 11 11 12 12 12 12 11 11 11 11 10 9 9 10
22 21 24 26 24 23 23 24 24 22 20 19 19 18 18 17 17 16 15 15 14 14 13 12 12 12 12 12 12 12 12 12 13 12 12 12 11 11 10 9 9 10
20 20 23 24 22 22 23 24 25 24 21 20 20 20 19 18 17 16 15 15 15 14 14 13 12 12 12 12 13 13 13 13 13 13 12 12 11 11 10 10 10 10
20 21 23 22 20 22 23 24 26 24 21 21 21 20 19 18 17 16 15 15 14 14 13 13 13 12 12 13 13 13 13 13 13 13 13 12 12 11 10 10 10 10
21 22 23 21 21 23 23 24 26 25 24 23 21 19 19 18 17 16 16 15 14 14 14 13 13 12 12 13 14 14 14 14 13 13 13 13 12 11 10 10 10 10
22 23 23 23 23 23 24 28 30 28 26 25 23 21 19 18 17 17 16 15 15 14 14 13 12 12 14 15 15 15 14 14 13 13 13 13 12 11 11 10 10 10
23 22 23 24 24 25 28 31 31 29 27 25 24 24 21 19 18 18 16 16 15 15 15 14 12 13 15 17 17 16 14 13 13 13 12 12 12 11 11 11 11 11
21 21 22 23 24 27 30 32 31 29 28 26 25 26 24 20 19 19 18 17 16 16 15 14 13 15 16 16 18 18 16 13 13 13 12 12 11 11 11 11 11 11
20 21 22 21 25 30 32 32 30 27 26 26 26 27 26 22 19 19 19 18 17 16 16 14 15 17 17 15 17 19 18 14 12 12 12 11 11 11 11 11 11 11
22 26 26 25 28 32 32 30 27 24 23 24 25 28 27 22 19 19 19 18 17 17 15 14 17 19 18 16 16 19 19 15 11 12 12 10 11 11 10 11 11 10
24 27 29 31 32 32 32 29 24 21 20 21 24 28 27 22 19 19 18 17 17 17 15 14 18 20 19 17 16 18 19 14 10 11 12 10 11 11 10 10 10 10
28 27 28 33 34 32 32 29 23 21 22 23 25 26 24 20 18 17 17 17 16 17 16 15 19 21 20 18 16 17 19 15 11 12 12 11 11 11 10 10 10 9
33 31 30 33 35 35 32 27 22 22 24 25 24 21 19 18 18 17 17 17 17 18 16 16 21 23 21 19 17 18 19 15 11 12 12 11 12 12 11 10 10 10
35 35 34 34 36 36 31 24 21 23 25 24 23 21 20 20 19 17 16 16 17 18 16 17 22 24 22 20 18 18 18 14 12 13 12 12 12 12 11 10 11 12
34 36 38 37 37 35 29 23 24 26 27 25 23 22 21 21 20 17 15 15 15 17 17 18 22 24 23 20 19 19 18 14 12 13 12 12 12 12 11 10 11 13
33 38 42 40 37 34 28 24 26 27 28 27 25 22 22 23 21 16 15 14 14 17 18 17 20 24 24 21 19 19 19 15 12 12 13 12 12 12 11 10 10 12
Wind_Direction
193 194 193 192 191 188 186 182 173 171 165 153 149 151 152 151 148 146 143 139 131 124 120 115 113 111 106 107 106 102 98 92 89 86 84 82 79 79 74 70 68 67
189 191 191 191 191 189 187 180 171 166 160 152 149 149 150 149 148 147 142 138 132 125 121 117 115 112 111 113 107 103 100 95 92 89 88 86 84 81 77 74 72 71
188 192 190 188 188 187 183 175 168 165 157 152 150 148 147 146 147 147 142 138 133 126 123 119 117 114 114 114 109 105 102 99 97 94 91 88 85 83 81 80 78 75
189 195 191 188 188 185 177 167 166 166 157 152 151 147 145 146 148 146 142 139 133 128 126 121 118 117 116 115 111 108 106 102 100 98 95 91 88 87 85 85 83 79
188 190 185 186 186 183 175 167 167 166 159 153 149 147 148 149 149 147 144 141 135 131 128 123 121 119 118 118 116 113 109 105 103 102 99 96 93 92 90 89 87 82
187 184 181 183 182 179 174 170 169 165 159 154 148 148 151 152 151 150 146 142 138 135 130 125 123 122 122 122 119 116 111 108 108 106 104 102 100 97 95 92 88 84
186 183 180 180 179 177 174 172 170 164 159 154 149 150 154 154 153 151 147 144 140 136 131 127 126 126 127 126 121 117 114 112 112 111 109 109 107 103 99 94 91 87
182 179 178 176 174 174 174 172 169 165 160 153 151 153 156 157 156 152 148 145 142 137 131 129 128 129 129 128 125 121 119 118 118 118 116 115 113 108 103 99 94 91
178 176 176 173 169 172 175 172 168 165 161 155 153 156 159 160 157 153 149 146 143 138 135 132 130 132 131 130 129 127 125 124 124 123 122 120 117 112 109 106 100 96
177 174 174 171 169 172 175 174 171 168 162 156 153 156 161 162 158 153 150 148 145 141 139 137 134 134 134 132 132 132 131 130 128 128 126 124 119 115 113 110 105 100
176 172 173 172 170 172 175 176 173 167 161 157 154 157 163 162 159 156 153 151 149 147 144 140 138 137 136 136 137 137 136 134 132 131 128 125 120 117 116 112 107 103
174 170 172 172 171 171 174 175 172 167 163 158 156 159 162 163 160 158 157 155 152 150 147 143 141 138 139 142 143 142 140 137 135 133 130 127 123 119 118 114 108 103
172 171 172 171 170 172 173 174 174 171 164 159 160 162 162 163 163 160 158 157 154 152 150 146 143 141 143 148 148 147 145 141 139 137 134 130 127 122 119 116 110 104
173 174 173 169 170 174 173 173 175 172 166 164 167 168 165 165 165 161 159 158 156 154 152 149 147 146 150 154 154 153 150 147 145 142 139 135 131 126 122 118 114 108
175 175 173 170 172 174 172 174 175 175 174 173 172 170 168 168 168 164 161 160 159 157 154 154 153 152 158 161 160 158 154 151 149 147 144 140 136 133 127 123 118 110
174 174 172 170 171 172 174 177 179 179 179 178 176 173 169 169 172 169 164 163 162 160 160 159 158 163 168 167 164 161 158 155 153 151 150 146 143 140 135 130 122 117
175 175 173 170 170 173 177 180 181 182 181 179 179 179 173 170 174 174 171 170 168 166 166 164 167 174 173 171 169 165 160 158 157 156 156 153 151 148 143 139 132 129
176 174 173 171 173 176 178 180 183 183 182 180 181 182 177 172 175 176 176 176 174 173 172 169 176 179 172 171 174 168 162 162 162 162 162 161 161 157 153 150 144 142
175 170 167 169 174 178 179 180 181 180 182 184 184 186 183 177 177 179 178 178 176 177 175 172 180 181 171 169 176 173 167 165 167 169 169 168 169 165 162 159 155 153
175 172 172 173 175 178 179 178 177 176 178 182 186 188 186 181 180 180 179 178 178 178 176 175 182 184 175 170 175 176 173 169 171 175 173 172 173 168 168 168 164 162
174 174 176 177 176 176 177 176 175 174 174 179 187 190 188 184 182 181 179 177 179 181 178 178 186 186 180 174 174 177 177 174 175 178 175 174 174 170 171 172 171 170
175 173 174 176 177 177 177 178 177 175 178 185 189 188 187 185 181 180 179 176 178 181 179 181 189 188 183 179 176 176 179 180 180 180 178 177 176 175 176 176 176 177
180 178 174 175 179 181 181 181 178 178 183 188 184 180 180 181 179 180 181 178 177 179 177 181 190 190 186 184 181 177 180 184 185 182 182 182 180 181 182 181 183 184
184 183 180 178 181 183 183 182 179 181 185 185 181 177 177 180 180 178 179 179 179 180 178 183 191 191 188 188 187 182 181 186 188 183 183 184 182 185 187 186 191 193
184 185 187 185 183 183 185 184 183 186 188 186 182 178 177 179 180 175 175 177 178 180 181 185 191 193 192 191 191 187 185 188 191 185 184 185 183 185 189 188 192 198
184 188 191 187 184 184 185 186 187 189 189 188 184 179 178 181 180 174 171 169 171 179 182 184 192 195 194 193 195 193 188 187 194 190 184 186 186 187 190 188 188 195
Height
818 820 822 823 824 825 826 827 828 830 831 831 832 833 834 836 837 838 839 840 841 841 841 842 842 843 844 845 846 847 847 847 847 848 848 848 849 849 849 850 850 850
815 817 820 822 823 825 825 826 828 830 831 831 832 833 834 835 836 837 838 839 841 841 841 842 843 843 845 846 846 847 847 848 848 849 849 849 850 850 851 851 851 851
812 814 817 820 821 823 825 826 828 829 830 831 832 833 834 835 836 837 838 839 840 841 841 842 843 844 845 846 846 847 848 848 849 849 850 850 851 851 852 852 852 852
810 812 815 818 820 822 824 825 827 829 829 830 831 832 833 834 836 837 838 839 840 841 841 842 843 844 845 846 847 848 848 849 850 850 850 851 852 853 853 853 853 853
808 811 814 817 819 822 823 824 826 828 829 830 830 831 833 834 835 836 838 839 840 841 842 842 843 844 845 846 847 848 849 849 850 850 851 852 853 854 854 855 854 854
807 810 813 816 818 820 821 823 825 827 828 829 830 831 833 834 835 836 838 839 840 841 841 842 843 844 845 846 847 848 849 850 851 851 852 853 854 855 855 856 855 855
806 809 812 814 816 818 820 822 824 825 827 828 829 831 832 834 835 836 837 839 840 841 841 842 843 844 845 846 847 848 849 850 851 852 853 854 855 856 856 856 856 856
805 807 810 812 814 816 819 821 823 824 826 827 829 831 832 833 835 836 837 838 839 840 841 842 843 844 845 846 847 849 850 851 852 853 854 855 855 856 856 857 857 857
803 806 808 810 812 814 817 820 821 823 825 826 828 830 832 833 834 835 837 838 839 840 841 842 843 844 845 846 847 849 850 851 852 853 855 855 856 856 857 857 858 857
802 803 805 807 809 813 816 818 820 822 824 825 827 829 831 833 834 835 836 837 838 840 841 842 843 844 845 846 848 849 850 852 853 854 855 856 856 857 857 858 858 858
800 801 803 805 808 811 814 817 819 821 823 824 826 828 830 832 834 835 836 837 838 839 841 842 843 844 845 846 848 849 851 852 853 854 855 856 856 857 858 859 859 859
798 800 803 805 807 810 813 816 818 820 822 823 825 828 830 832 833 834 835 836 837 839 840 842 843 844 845 846 848 850 851 852 853 854 855 856 857 857 858 859 859 859
799 801 802 804 807 810 812 815 817 819 821 823 825 827 829 831 832 833 834 836 837 839 840 841 842 843 845 847 848 850 851 852 853 854 855 856 857 858 859 859 860 860
798 800 801 803 806 809 812 814 816 818 820 822 825 827 829 830 832 833 834 836 837 839 840 841 842 843 845 847 848 850 851 852 853 854 855 856 857 858 859 860 860 861
794 797 800 802 805 808 811 813 814 817 819 821 824 826 828 830 831 833 834 836 837 838 840 841 842 844 845 847 848 849 851 852 853 854 855 856 857 858 859 860 860 861
793 796 798 800 804 807 809 810 812 815 817 820 823 825 827 829 831 832 834 835 836 838 839 841 842 843 845 846 848 849 851 852 853 854 855 856 857 858 859 860 861 861
792 795 797 799 802 804 806 808 811 813 816 818 821 823 825 828 829 831 833 834 835 837 838 840 841 843 844 846 847 849 850 852 853 854 855 856 857 858 859 860 861 862
791 793 795 797 799 801 804 806 809 812 814 816 819 821 823 826 828 830 831 833 834 836 837 839 840 841 843 845 846 848 850 851 853 854 855 856 857 857 858 859 860 861
789 791 793 796 797 799 802 805 808 810 813 815 817 819 822 824 826 828 830 831 833 834 836 838 839 840 842 844 846 847 849 851 852 854 855 856 857 857 858 859 860 861
787 788 790 793 796 798 801 804 807 809 812 814 816 818 821 823 825 827 828 830 832 833 836 837 838 840 842 843 845 846 848 850 852 853 854 856 856 857 858 858 859 860
784 785 788 791 794 797 800 803 806 808 811 813 815 817 820 822 824 826 827 829 831 833 835 836 837 839 841 843 844 845 847 849 851 852 854 855 856 857 858 858 859 860
782 784 786 788 792 796 799 802 805 806 809 811 813 816 819 821 823 825 826 828 830 832 834 835 836 838 841 842 843 845 847 849 850 852 853 854 855 857 857 858 858 859
779 782 784 786 790 794 797 800 802 804 806 808 811 815 817 819 821 823 825 827 828 831 833 833 835 837 840 841 843 844 846 848 850 850 852 853 855 856 857 857 858 858
777 780 783 785 789 792 796 798 800 802 804 806 809 812 815 817 819 821 824 826 827 829 831 832 834 836 838 841 842 844 846 847 849 849 850 852 853 855 856 856 857 857
776 778 781 784 788 791 795 797 798 800 802 805 808 810 813 815 818 820 823 825 826 828 830 831 833 835 837 840 842 843 845 847 848 848 849 851 852 853 855 855 856 857
775 777 779 781 785 788 792 796 798 799 801 804 806 809 811 813 816 819 821 823 825 827 829 831 832 834 836 839 841 843 844 846 847 848 848 850 851 852 853 854 855 856